| time (UTC) | temp F | wind direction | speed MPH | gust MPH | rain 1hr in | rain 24hr in | rain mn in | humidity % | barometer mb |
| 20260904122251 | 74 | 46 | 0.0 | 0.0 | 0.00 | 0.00 | 0.00 | 99 | 1015.3 |
| 20260904121248 | 75 | 46 | 0.0 | 0.0 | 0.00 | 0.00 | 0.00 | 99 | 1015.2 |
| 20260904120245 | 75 | 46 | 0.0 | 0.0 | 0.00 | 0.00 | 0.00 | 99 | 1015.1 |
| 20260904115242 | 75 | 46 | 0.0 | 0.0 | 0.00 | 0.00 | 0.00 | 98 | 1015.0 |
| 20260904114236 | 75 | 46 | 0.0 | 0.0 | 0.00 | 0.00 | 0.00 | 98 | 1015.2 |
| 20260904113236 | 75 | 46 | 0.0 | 0.0 | 0.00 | 0.00 | 0.00 | 98 | 1015.2 |
| 20260904112232 | 75 | 46 | 0.0 | 0.0 | 0.00 | 0.00 | 0.00 | 98 | 1015.2 |
| 20260904111230 | 75 | 46 | 0.0 | 0.0 | 0.00 | 0.00 | 0.00 | 98 | 1015.2 |
| 20260904110224 | 75 | 46 | 0.0 | 0.0 | 0.00 | 0.00 | 0.00 | 98 | 1015.1 |
| 20260904105220 | 75 | 45 | 0.0 | 0.0 | 0.00 | 0.00 | 0.00 | 97 | 1015.1 |
| 20260904104217 | 75 | 45 | 0.0 | 0.0 | 0.00 | 0.00 | 0.00 | 97 | 1014.9 |
| 20260904103214 | 75 | 45 | 0.0 | 0.0 | 0.00 | 0.00 | 0.00 | 97 | 1015.0 |
| 20260904102211 | 75 | 46 | 0.0 | 0.0 | 0.00 | 0.00 | 0.00 | 96 | 1014.8 |
| 20260904101209 | 76 | 47 | 0.0 | 0.0 | 0.00 | 0.00 | 0.00 | 96 | 1014.8 |
| 20260904100206 | 76 | 46 | 0.0 | 0.0 | 0.00 | 0.00 | 0.00 | 96 | 1014.8 |
| 20260904095206 | 76 | 47 | 0.0 | 0.0 | 0.00 | 0.00 | 0.00 | 96 | 1014.4 |
| 20260904094201 | 76 | 49 | 0.0 | 0.0 | 0.00 | 0.00 | 0.00 | 95 | 1014.4 |
| 20260904093158 | 77 | 30 | 0.0 | 0.0 | 0.00 | 0.00 | 0.00 | 95 | 1014.3 |
| 20260904092156 | 77 | 47 | 0.0 | 0.0 | 0.00 | 0.00 | 0.00 | 95 | 1014.4 |
| 20260904091152 | 77 | 44 | 0.0 | 0.0 | 0.00 | 0.00 | 0.00 | 95 | 1014.3 |
| 20260904090148 | 77 | 41 | 0.0 | 0.0 | 0.00 | 0.00 | 0.00 | 95 | 1014.5 |
| 20260904085143 | 77 | 36 | 0.0 | 0.0 | 0.00 | 0.00 | 0.00 | 94 | 1014.5 |
| 20260904084141 | 77 | 40 | 1.0 | 1.0 | 0.00 | 0.00 | 0.00 | 94 | 1014.4 |
| 20260904083139 | 77 | 42 | 0.0 | 0.0 | 0.00 | 0.00 | 0.00 | 94 | 1014.3 |
| 20260904082135 | 77 | 41 | 0.0 | 0.0 | 0.00 | 0.00 | 0.00 | 94 | 1014.2 |
| 20260904081131 | 77 | 42 | 0.0 | 0.0 | 0.00 | 0.00 | 0.00 | 94 | 1014.5 |
| 20260904080129 | 77 | 42 | 0.0 | 0.0 | 0.00 | 0.00 | 0.00 | 94 | 1014.0 |
| 20260904075124 | 77 | 42 | 0.0 | 0.0 | 0.00 | 0.00 | 0.00 | 94 | 1014.2 |
| 20260904074119 | 77 | 43 | 0.0 | 0.0 | 0.00 | 0.00 | 0.00 | 95 | 1014.2 |
| 20260904073116 | 77 | 42 | 0.0 | 0.0 | 0.00 | 0.00 | 0.00 | 94 | 1014.3 |
| 20260904072113 | 77 | 42 | 0.0 | 0.0 | 0.00 | 0.00 | 0.00 | 94 | 1014.2 |
| 20260904071109 | 77 | 42 | 0.0 | 0.0 | 0.00 | 0.00 | 0.00 | 94 | 1014.1 |
| 20260904065100 | 78 | 43 | 0.0 | 0.0 | 0.00 | 0.00 | 0.00 | 93 | 1014.5 |
| 20260904064055 | 78 | 43 | 0.0 | 0.0 | 0.00 | 0.00 | 0.00 | 93 | 1014.4 |
| 20260904063053 | 78 | 41 | 0.0 | 0.0 | 0.00 | 0.00 | 0.00 | 92 | 1014.3 |
| 20260904062049 | 78 | 40 | 1.0 | 1.0 | 0.00 | 0.00 | 0.00 | 91 | 1014.3 |
| 20260904061047 | 78 | 39 | 0.0 | 0.0 | 0.00 | 0.00 | 0.00 | 91 | 1014.3 |
| 20260904060045 | 79 | 37 | 0.0 | 0.0 | 0.00 | 0.00 | 0.00 | 90 | 1014.3 |
| 20260904055041 | 79 | 44 | 0.0 | 0.0 | 0.00 | 0.00 | 0.00 | 90 | 1013.9 |
| 20260904054038 | 79 | 43 | 0.0 | 0.0 | 0.00 | 0.00 | 0.00 | 89 | 1014.0 |
| 20260904053033 | 79 | 44 | 0.0 | 1.0 | 0.00 | 0.00 | 0.00 | 89 | 1013.9 |
| 20260904052031 | 79 | 31 | 0.0 | 0.0 | 0.00 | 0.00 | 0.00 | 89 | 1014.0 |
| 20260904051026 | 79 | 24 | 1.0 | 1.0 | 0.00 | 0.00 | 0.00 | 88 | 1013.9 |
| 20260904050025 | 80 | 27 | 1.0 | 1.0 | 0.00 | 0.95 | 0.95 | 87 | 1014.2 |
| 20260904045020 | 80 | 15 | 0.0 | 1.0 | 0.00 | 0.95 | 0.95 | 87 | 1014.2 |
| 20260904044018 | 80 | 33 | 1.0 | 2.0 | 0.00 | 0.95 | 0.95 | 86 | 1014.4 |
| 20260904043015 | 80 | 45 | 0.0 | 0.0 | 0.00 | 0.95 | 0.95 | 85 | 1014.4 |
| 20260904042013 | 80 | 30 | 1.0 | 1.0 | 0.00 | 0.95 | 0.95 | 84 | 1014.2 |
| 20260904041010 | 80 | 38 | 0.0 | 0.0 | 0.00 | 0.95 | 0.95 | 83 | 1014.3 |
| 20260904040007 | 81 | 44 | 0.0 | 0.0 | 0.00 | 0.95 | 0.95 | 85 | 1014.2 |
| 20260904035001 | 80 | 43 | 1.0 | 2.0 | 0.00 | 0.95 | 0.95 | 83 | 1014.2 |
| 20260904033958 | 81 | 45 | 0.0 | 0.0 | 0.00 | 0.95 | 0.95 | 83 | 1014.3 |
| 20260904032955 | 81 | 45 | 0.0 | 0.0 | 0.00 | 0.95 | 0.95 | 83 | 1014.3 |
| 20260904031955 | 81 | 42 | 0.0 | 1.0 | 0.00 | 0.95 | 0.95 | 82 | 1014.2 |
| 20260904030953 | 82 | 43 | 0.0 | 0.0 | 0.00 | 0.95 | 0.95 | 83 | 1014.3 |
| 20260904025949 | 82 | 45 | 0.0 | 1.0 | 0.00 | 0.95 | 0.95 | 82 | 1014.0 |
| 20260904024945 | 82 | 41 | 0.0 | 0.0 | 0.00 | 0.95 | 0.95 | 82 | 1014.1 |
| 20260904023942 | 82 | 53 | 2.0 | 2.0 | 0.00 | 0.95 | 0.95 | 81 | 1013.9 |
| 20260904022937 | 82 | 48 | 0.0 | 0.0 | 0.00 | 0.95 | 0.95 | 81 | 1013.7 |
| 20260904021936 | 83 | 40 | 0.0 | 0.0 | 0.00 | 0.95 | 0.95 | 80 | 1013.7 |
| 20260904020933 | 83 | 45 | 0.0 | 0.0 | 0.00 | 0.95 | 0.95 | 78 | 1013.7 |
| 20260904015931 | 84 | 41 | 0.0 | 0.0 | 0.00 | 0.95 | 0.95 | 78 | 1013.5 |
| 20260904014926 | 84 | 29 | 1.0 | 1.0 | 0.00 | 0.95 | 0.95 | 77 | 1013.4 |
| 20260904013923 | 84 | 46 | 1.0 | 1.0 | 0.00 | 0.95 | 0.95 | 76 | 1013.4 |
| 20260904012920 | 85 | 36 | 0.0 | 0.0 | 0.00 | 0.95 | 0.95 | 74 | 1013.1 |
| 20260904011921 | 85 | 44 | 0.0 | 0.0 | 0.00 | 0.95 | 0.95 | 73 | 1012.8 |
| 20260904010916 | 85 | 47 | 0.0 | 0.0 | 0.00 | 0.95 | 0.95 | 74 | 1012.6 |
| 20260904005914 | 86 | 37 | 1.0 | 1.0 | 0.00 | 0.95 | 0.95 | 71 | 1012.5 |
| 20260904004909 | 86 | 50 | 1.0 | 1.0 | 0.00 | 0.95 | 0.95 | 72 | 1012.5 |
| 20260904003906 | 87 | 26 | 2.0 | 3.0 | 0.00 | 0.95 | 0.95 | 70 | 1012.5 |
| 20260904002903 | 87 | 9 | 2.0 | 2.0 | 0.00 | 0.95 | 0.95 | 69 | 1012.5 |
| 20260904001858 | 88 | 46 | 1.0 | 1.0 | 0.00 | 0.95 | 0.95 | 69 | 1012.4 |
| 20260904000854 | 88 | 40 | 1.0 | 1.0 | 0.00 | 0.95 | 0.95 | 66 | 1012.4 |
| 20260903235854 | 89 | 38 | 1.0 | 2.0 | 0.00 | 0.95 | 0.95 | 65 | 1012.2 |
| 20260903234849 | 90 | 50 | 1.0 | 1.0 | 0.00 | 0.95 | 0.95 | 63 | 1012.3 |
| 20260903233848 | 90 | 307 | 1.0 | 2.0 | 0.00 | 0.95 | 0.95 | 63 | 1012.3 |
| 20260903232843 | 90 | 53 | 0.0 | 0.0 | 0.00 | 0.95 | 0.95 | 64 | 1012.5 |
| 20260903231838 | 90 | 44 | 0.0 | 0.0 | 0.00 | 0.95 | 0.95 | 63 | 1012.4 |
| 20260903230834 | 90 | 9 | 2.0 | 3.0 | 0.00 | 0.95 | 0.95 | 62 | 1012.3 |
| 20260903225832 | 91 | 38 | 2.0 | 3.0 | 0.00 | 0.95 | 0.95 | 61 | 1012.4 |
| 20260903224830 | 91 | 323 | 2.0 | 2.0 | 0.00 | 0.95 | 0.95 | 60 | 1012.4 |
| 20260903223827 | 90 | 56 | 1.0 | 1.0 | 0.00 | 0.95 | 0.95 | 61 | 1012.3 |
| 20260903222827 | 91 | 14 | 2.0 | 3.0 | 0.00 | 0.95 | 0.95 | 61 | 1012.8 |
| 20260903221827 | 91 | 19 | 2.0 | 3.0 | 0.00 | 0.95 | 0.95 | 62 | 1012.6 |
| 20260903220824 | 92 | 34 | 2.0 | 3.0 | 0.00 | 0.95 | 0.95 | 60 | 1012.6 |
| 20260903215822 | 91 | 53 | 1.0 | 1.0 | 0.00 | 0.95 | 0.95 | 61 | 1012.8 |
| 20260903214817 | 90 | 49 | 1.0 | 2.0 | 0.00 | 0.95 | 0.95 | 63 | 1013.1 |
| 20260903213813 | 90 | 26 | 1.0 | 1.0 | 0.00 | 0.95 | 0.95 | 65 | 1013.0 |
| 20260903212811 | 91 | 74 | 0.0 | 1.0 | 0.00 | 0.95 | 0.95 | 62 | 1012.9 |
| 20260903211806 | 91 | 70 | 0.0 | 0.0 | 0.00 | 0.95 | 0.95 | 63 | 1013.0 |
| 20260903210804 | 91 | 50 | 0.0 | 0.0 | 0.00 | 0.95 | 0.95 | 64 | 1013.2 |
| 20260903205759 | 91 | 33 | 1.0 | 1.0 | 0.00 | 0.95 | 0.95 | 61 | 1013.3 |
| 20260903204759 | 91 | 11 | 1.0 | 1.0 | 0.00 | 0.95 | 0.95 | 61 | 1013.5 |
| 20260903203757 | 90 | 46 | 1.0 | 2.0 | 0.00 | 0.95 | 0.95 | 61 | 1013.4 |
| 20260903202756 | 89 | 47 | 0.0 | 1.0 | 0.00 | 0.95 | 0.95 | 64 | 1013.3 |
| 20260903201752 | 89 | 9 | 2.0 | 2.0 | 0.00 | 0.95 | 0.95 | 64 | 1013.4 |
| 20260903200752 | 89 | 53 | 0.0 | 0.0 | 0.00 | 0.95 | 0.95 | 65 | 1013.7 |
| 20260903195749 | 89 | 51 | 0.0 | 1.0 | 0.00 | 0.95 | 0.95 | 67 | 1014.0 |
| 20260903194744 | 89 | 52 | 0.0 | 1.0 | 0.00 | 0.95 | 0.95 | 66 | 1014.1 |
| 20260903193742 | 89 | 45 | 0.0 | 1.0 | 0.00 | 0.95 | 0.95 | 68 | 1014.2 |
| 20260903192739 | 89 | 52 | 2.0 | 3.0 | 0.00 | 0.95 | 0.95 | 67 | 1014.3 |
| 20260903191737 | 87 | 34 | 1.0 | 2.0 | 0.00 | 0.95 | 0.95 | 69 | 1014.6 |
| 20260903190732 | 88 | 50 | 1.0 | 1.0 | 0.00 | 0.95 | 0.95 | 69 | 1014.6 |
| 20260903185727 | 88 | 289 | 2.0 | 2.0 | 0.00 | 0.95 | 0.95 | 70 | 1014.7 |
| 20260903184724 | 88 | 42 | 0.0 | 1.0 | 0.00 | 0.95 | 0.95 | 69 | 1014.9 |
| 20260903183720 | 87 | 326 | 2.0 | 3.0 | 0.00 | 0.95 | 0.95 | 71 | 1015.0 |
| 20260903182719 | 87 | 45 | 0.0 | 1.0 | 0.00 | 0.95 | 0.95 | 71 | 1015.3 |
| 20260903181719 | 87 | 357 | 4.0 | 6.0 | 0.00 | 0.95 | 0.95 | 72 | 1015.4 |
| 20260903180716 | 86 | 230 | 2.0 | 4.0 | 0.00 | 0.95 | 0.95 | 73 | 1015.6 |
| 20260903175714 | 85 | 11 | 3.0 | 3.0 | 0.00 | 0.95 | 0.95 | 76 | 1015.8 |
| 20260903174714 | 84 | 43 | 1.0 | 2.0 | 0.00 | 0.95 | 0.95 | 78 | 1015.9 |
| 20260903173709 | 86 | 44 | 1.0 | 3.0 | 0.00 | 0.95 | 0.95 | 73 | 1015.8 |
| 20260903172706 | 85 | 30 | 1.0 | 1.0 | 0.00 | 0.95 | 0.95 | 76 | 1016.1 |
| 20260903171701 | 87 | 42 | 0.0 | 1.0 | 0.00 | 0.95 | 0.95 | 72 | 1015.9 |
| 20260903170656 | 86 | 326 | 5.0 | 7.0 | 0.00 | 0.95 | 0.95 | 75 | 1016.0 |
| 20260903165655 | 84 | 306 | 3.0 | 3.0 | 0.00 | 0.95 | 0.95 | 77 | 1016.2 |
| 20260903164651 | 84 | 44 | 1.0 | 1.0 | 0.00 | 0.95 | 0.95 | 78 | 1016.2 |
| 20260903163647 | 84 | 38 | 3.0 | 4.0 | 0.00 | 0.95 | 0.95 | 78 | 1016.3 |
| 20260903162645 | 84 | 42 | 2.0 | 3.0 | 0.00 | 0.95 | 0.95 | 77 | 1016.2 |
| 20260903161642 | 84 | 25 | 2.0 | 2.0 | 0.00 | 0.95 | 0.95 | 79 | 1016.2 |
| 20260903160638 | 83 | 38 | 2.0 | 2.0 | 0.00 | 0.95 | 0.95 | 80 | 1016.2 |
| 20260903155637 | 81 | 47 | 4.0 | 7.0 | 0.00 | 0.95 | 0.95 | 84 | 1016.1 |
| 20260903154634 | 82 | 41 | 2.0 | 2.0 | 0.00 | 0.95 | 0.95 | 83 | 1016.2 |
| 20260903153632 | 83 | 42 | 1.0 | 2.0 | 0.00 | 0.95 | 0.95 | 84 | 1015.9 |
| 20260903152629 | 82 | 11 | 2.0 | 3.0 | 0.00 | 0.95 | 0.95 | 85 | 1015.7 |
| 20260903151630 | 81 | 44 | 1.0 | 1.0 | 0.00 | 0.95 | 0.95 | 85 | 1016.0 |
| 20260903150625 | 80 | 43 | 2.0 | 3.0 | 0.00 | 0.95 | 0.95 | 88 | 1015.7 |
| 20260903145620 | 79 | 9 | 3.0 | 3.0 | 0.00 | 0.95 | 0.95 | 90 | 1015.8 |
| 20260903144619 | 79 | 25 | 4.0 | 6.0 | 0.00 | 0.95 | 0.95 | 92 | 1015.8 |
| 20260903143618 | 78 | 39 | 1.0 | 2.0 | 0.00 | 0.95 | 0.95 | 94 | 1015.8 |
| 20260903142614 | 76 | 44 | 1.0 | 2.0 | 0.00 | 0.95 | 0.95 | 97 | 1015.9 |
| 20260903141612 | 76 | 47 | 2.0 | 4.0 | 0.00 | 0.95 | 0.95 | 97 | 1015.9 |
| 20260903140609 | 76 | 27 | 2.0 | 3.0 | 0.00 | 0.95 | 0.95 | 97 | 1016.0 |
| 20260903135606 | 75 | 7 | 1.0 | 1.0 | 0.00 | 0.95 | 0.95 | 98 | 1016.2 |
| 20260903134605 | 75 | 43 | 0.0 | 1.0 | 0.00 | 0.95 | 0.95 | 99 | 1016.2 |
| 20260903133604 | 75 | 25 | 1.0 | 1.0 | 0.00 | 0.95 | 0.95 | 99 | 1015.8 |
| 20260903132601 | 75 | 340 | 2.0 | 4.0 | 0.00 | 0.95 | 0.95 | 99 | 1015.7 |
| 20260903131602 | 74 | 32 | 2.0 | 3.0 | 0.00 | 0.95 | 0.95 | 99 | 1015.8 |
| 20260903130601 | 74 | 37 | 1.0 | 1.0 | 0.00 | 0.95 | 0.95 | 99 | 1016.1 |
| 20260903125601 | 73 | 46 | 0.0 | 0.0 | 0.00 | 0.95 | 0.95 | 99 | 1016.1 |
| 20260903124556 | 73 | 42 | 0.0 | 0.0 | 0.00 | 0.95 | 0.95 | 99 | 1015.9 |
| 20260903123555 | 73 | 15 | 2.0 | 3.0 | 0.00 | 0.95 | 0.95 | 99 | 1015.8 |
| 20260903122554 | 73 | 48 | 0.0 | 0.0 | 0.00 | 0.95 | 0.95 | 99 | 1015.7 |